Fremont, MI

3:07 PM EDT on October 18, 2019 (GMT -0400)
Fremont

Weather History for KFFX - September, 2019

Change the Weather History Date:

Monday, September 16, 2019

  Actual Average (WUND) Record (WUND)
Temperature  
Mean Temperature 70 °F -  
Max Temperature 78 °F - - (-1)
Min Temperature 62 °F - - (-1)
Cooling Degree Days 5    
Growing Degree Days 20 (Base 50)    
Moisture  
Dew Point 60 °F    
Average Humidity 73    
Maximum Humidity 96    
Minimum Humidity 35    
Precipitation  
Precipitation 0.00 in - - ()
Sea Level Pressure  
Sea Level Pressure 30.10 in    
Wind  
Wind Speed 1 mph ()    
Max Wind Speed 7 mph    
Max Gust Speed -    
Visibility 7.8 miles    
Events      
Averages and records for this station are not official NWS values.
T = Trace of Precipitation, MM = Missing Value Source: Averaged Metar Reports

Daily Weather History Graph

Daily Weather History Graph

Search for Another Location

Airport or City:

Astronomy

Sep. 16, 2019 Rise Set
Actual Time 7:24 AM EDT 7:52 PM EDT
Civil Twilight 6:55 AM EDT 8:21 PM EDT
Nautical Twilight 6:21 AM EDT 8:55 PM EDT
Astronomical Twilight 5:46 AM EDT 9:29 PM EDT
Moon 9:23 PM EDT (9/16) 9:33 AM EDT (9/16)
Length of Visible Light 13h 25m
Length of Day
12h 28m
Waning Gibbous, 94% of the Moon is Illuminated
Sep 16
Waning Gibbous
Sep 21
Last Quarter
Sep 28
New
Oct 5
First Quarter
Oct 13
Full

Hourly Weather History & Observations

Time (EDT) Temp. Dew Point Humidity Pressure Visibility Wind Dir Wind Speed Gust Speed Precip Events Conditions
12:15 AM 66.6 °F 65.3 °F 96% 30.04 in 7.0 mi Calm Calm - N/A   Overcast
12:16 AM 66.6 °F 65.3 °F 96% 30.04 in 7.0 mi Calm Calm - N/A   Overcast
12:35 AM 66.4 °F 64.9 °F 95% 30.04 in 7.0 mi Calm Calm - N/A   Overcast
12:55 AM 66.2 °F 64.8 °F 95% 30.04 in 7.0 mi Calm Calm - N/A   Overcast
1:00 AM 66.2 °F 64.8 °F 95% 30.04 in 7.0 mi Calm Calm - N/A   Overcast
1:36 AM 66.2 °F 64.8 °F 95% 30.04 in 7.0 mi Calm Calm - N/A   Overcast
1:55 AM 66.2 °F 64.8 °F 95% 30.04 in 7.0 mi Calm Calm - N/A   Overcast
1:56 AM 66.2 °F 64.9 °F 96% 30.04 in 7.0 mi Calm Calm - N/A   Overcast
2:15 AM 66.4 °F 65.3 °F 96% 30.04 in 7.0 mi Calm Calm - N/A   Overcast
2:39 AM 66.6 °F 65.1 °F 95% 30.05 in 7.0 mi Calm Calm - N/A   Overcast
2:57 AM 66.6 °F 65.3 °F 96% 30.05 in 10.0 mi Calm Calm - N/A   Overcast
3:15 AM 66.6 °F 65.3 °F 96% 30.05 in 7.0 mi Calm Calm - N/A   Overcast
3:35 AM 66.4 °F 65.1 °F 96% 30.05 in 7.0 mi NNW 3.5 mph - N/A   Overcast
3:55 AM 66.2 °F 64.8 °F 95% 30.06 in 5.0 mi Calm Calm - N/A   Overcast
4:18 AM 66.2 °F 64.8 °F 95% 30.06 in 5.0 mi Calm Calm - N/A   Overcast
4:36 AM 66.2 °F 64.9 °F 96% 30.07 in 5.0 mi Calm Calm - N/A   Overcast
5:15 AM 66.2 °F 64.9 °F 96% 30.07 in 7.0 mi Calm Calm - N/A   Overcast
5:39 AM 66.4 °F 65.1 °F 96% 30.07 in 7.0 mi Calm Calm - N/A   Overcast
5:57 AM 66.6 °F 65.3 °F 96% 30.07 in 7.0 mi Calm Calm - N/A   Overcast
6:15 AM 66.4 °F 65.1 °F 96% 30.08 in 7.0 mi Calm Calm - N/A   Overcast
6:16 AM 66.2 °F 65.1 °F 96% 30.08 in 7.0 mi Calm Calm - N/A   Overcast
6:35 AM 66.0 °F 64.8 °F 96% 30.07 in 5.0 mi Calm Calm - N/A   Overcast
6:55 AM 66.0 °F 64.8 °F 96% 30.08 in 5.0 mi Calm Calm - N/A   Overcast
7:18 AM 66.2 °F 64.9 °F 96% 30.09 in 5.0 mi Calm Calm - N/A   Overcast
7:36 AM 65.8 °F 64.8 °F 96% 30.09 in 4.0 mi Calm Calm - N/A   Overcast
7:55 AM 65.5 °F 64.4 °F 96% 30.10 in 4.0 mi Calm Calm - N/A   Overcast
7:56 AM 65.5 °F 64.4 °F 96% 30.10 in 4.0 mi Calm Calm - N/A   Overcast
8:15 AM 66.2 °F 64.8 °F 95% 30.10 in 2.5 mi Calm Calm - N/A   Overcast
8:39 AM 66.4 °F 65.3 °F 96% 30.11 in 5.0 mi Calm Calm - N/A   Overcast
8:57 AM 66.9 °F 65.3 °F 95% 30.11 in 5.0 mi Calm Calm - N/A   Overcast
9:15 AM 67.1 °F 65.3 °F 94% 30.11 in 7.0 mi North 3.5 mph - N/A   Overcast
9:55 AM 68.9 °F 64.9 °F 87% 30.12 in 10.0 mi NE 4.6 mph - N/A   Overcast
10:00 AM 69.1 °F 64.8 °F 86% 30.12 in 10.0 mi ENE 3.5 mph - N/A   Overcast
10:18 AM 70.7 °F 63.0 °F 76% 30.13 in 10.0 mi Calm Calm - N/A   Overcast
10:36 AM 71.2 °F 61.3 °F 71% 30.13 in 7.0 mi ENE 3.5 mph - N/A   Mostly Cloudy
10:55 AM 71.8 °F 59.4 °F 65% 30.14 in 7.0 mi ENE 4.6 mph - N/A   Mostly Cloudy
11:15 AM 71.1 °F 59.2 °F 66% 30.14 in 7.0 mi East 4.6 mph - N/A   Overcast
11:39 AM 71.8 °F 57.0 °F 60% 30.14 in 7.0 mi North 4.6 mph - N/A   Overcast
11:57 AM 72.3 °F 57.2 °F 59% 30.14 in 10.0 mi NNW 4.6 mph - N/A   Mostly Cloudy
12:15 PM 73.6 °F 56.3 °F 55% 30.14 in 7.0 mi NE 5.8 mph - N/A   Mostly Cloudy
12:16 PM 73.2 °F 56.3 °F 55% 30.14 in 10.0 mi NE 3.5 mph - N/A   Mostly Cloudy
12:35 PM 75.0 °F 56.5 °F 52% 30.14 in 7.0 mi ENE 5.8 mph - N/A   Mostly Cloudy
12:55 PM 73.8 °F 55.0 °F 52% 30.14 in 7.0 mi East 4.6 mph - N/A   Overcast
1:17 PM 73.9 °F 54.5 °F 51% 30.14 in 7.0 mi Calm Calm - N/A   Mostly Cloudy
1:36 PM 76.1 °F 52.3 °F 43% 30.14 in 10.0 mi Calm Calm - N/A   Scattered Clouds
1:55 PM 76.6 °F 52.5 °F 43% 30.13 in 10.0 mi NW 3.5 mph - N/A   Scattered Clouds
1:56 PM 76.6 °F 52.7 °F 43% 30.13 in 10.0 mi NW 3.5 mph - N/A   Scattered Clouds
2:15 PM 76.8 °F 53.4 °F 44% 30.12 in 10.0 mi Calm Calm - N/A   Scattered Clouds
2:16 PM 77.0 °F 53.2 °F 44% 30.12 in 10.0 mi Calm Calm - N/A   Scattered Clouds
2:39 PM 77.9 °F 52.9 °F 42% 30.12 in 10.0 mi NNW 5.8 mph - N/A   Scattered Clouds
2:56 PM 78.8 °F 52.3 °F 40% 30.11 in 7.0 mi NNW 5.8 mph - N/A   Mostly Cloudy
3:15 PM 77.4 °F 51.3 °F 40% 30.11 in 7.0 mi NNE 4.6 mph - N/A   Mostly Cloudy
3:16 PM 77.2 °F 51.4 °F 41% 30.11 in 7.0 mi NNE 4.6 mph - N/A   Scattered Clouds
3:35 PM 78.4 °F 50.2 °F 37% 30.11 in 10.0 mi Calm Calm - N/A   Scattered Clouds
3:36 PM 78.6 °F 50.4 °F 37% 30.11 in 7.0 mi West 3.5 mph - N/A   Scattered Clouds
3:55 PM 78.6 °F 49.1 °F 35% 30.11 in 10.0 mi NNW 3.5 mph - N/A   Scattered Clouds
4:18 PM 78.1 °F 49.6 °F 37% 30.10 in 7.0 mi NNE 4.6 mph - N/A   Mostly Cloudy
4:36 PM 78.3 °F 50.5 °F 38% 30.10 in 7.0 mi Calm Calm - N/A   Scattered Clouds
4:55 PM 78.4 °F 49.5 °F 36% 30.11 in 7.0 mi NNE 3.5 mph - N/A   Clear
4:56 PM 78.4 °F 49.1 °F 36% 30.10 in 7.0 mi Calm Calm - N/A   Clear
5:15 PM 78.3 °F 50.0 °F 37% 30.10 in 10.0 mi North 3.5 mph - N/A   Scattered Clouds
5:39 PM 78.3 °F 49.5 °F 36% 30.10 in 7.0 mi NNE 3.5 mph - N/A   Scattered Clouds
5:57 PM 78.1 °F 50.7 °F 38% 30.10 in 10.0 mi NNW 4.6 mph - N/A   Clear
6:15 PM 77.9 °F 51.3 °F 39% 30.11 in 10.0 mi North 4.6 mph - N/A   Clear
6:16 PM 77.9 °F 51.4 °F 40% 30.11 in 10.0 mi North 4.6 mph - N/A   Clear
6:35 PM 77.4 °F 51.4 °F 40% 30.11 in 10.0 mi North 4.6 mph - N/A   Clear
6:36 PM 77.4 °F 51.3 °F 40% 30.11 in 10.0 mi North 4.6 mph - N/A   Clear
6:55 PM 76.3 °F 52.3 °F 43% 30.11 in 10.0 mi North 3.5 mph - N/A   Clear
7:18 PM 75.2 °F 54.0 °F 47% 30.11 in 7.0 mi Calm Calm - N/A   Clear
7:36 PM 72.1 °F 56.5 °F 58% 30.11 in 10.0 mi NNW 6.9 mph - N/A   Clear
7:55 PM 69.8 °F 61.3 °F 74% 30.12 in 10.0 mi NNW 5.8 mph - N/A   Clear
7:56 PM 69.8 °F 61.9 °F 76% 30.12 in 10.0 mi NNW 5.8 mph - N/A   Clear
8:15 PM 68.9 °F 64.4 °F 86% 30.12 in 10.0 mi North 4.6 mph - N/A   Clear
8:16 PM 68.7 °F 64.4 °F 86% 30.12 in 10.0 mi North 4.6 mph - N/A   Clear
8:39 PM 66.9 °F 63.9 °F 90% 30.13 in 10.0 mi NNW 4.6 mph - N/A   Clear
8:57 PM 66.7 °F 63.9 °F 90% 30.13 in 10.0 mi North 3.5 mph - N/A   Clear
9:15 PM 66.2 °F 63.5 °F 91% 30.14 in 10.0 mi Calm Calm - N/A   Clear
9:35 PM 66.2 °F 63.7 °F 92% 30.14 in 10.0 mi Calm Calm - N/A   Clear
9:36 PM 66.0 °F 63.7 °F 92% 30.14 in 10.0 mi Calm Calm - N/A   Clear
9:55 PM 65.5 °F 63.3 °F 93% 30.13 in 10.0 mi Calm Calm - N/A   Clear
10:18 PM 64.6 °F 63.0 °F 94% 30.13 in 10.0 mi Calm Calm - N/A   Clear
10:36 PM 63.3 °F 61.9 °F 95% 30.14 in 10.0 mi Calm Calm - N/A   Clear
10:55 PM 63.5 °F 62.2 °F 96% 30.15 in 7.0 mi Calm Calm - N/A   Clear
10:56 PM 63.7 °F 62.4 °F 96% 30.15 in 7.0 mi Calm Calm - N/A   Clear
11:15 PM 63.5 °F 62.2 °F 96% 30.15 in 7.0 mi Calm Calm - N/A   Clear
11:39 PM 62.2 °F 61.0 °F 96% 30.15 in 2.5 mi Calm Calm - N/A   Clear
11:57 PM 63.7 °F 62.4 °F 96% 30.15 in 10.0 mi Calm Calm - N/A   Clear